Flag for Norway Weather past 2 weeks in Fetsund, Norway

Now
60 °F

Cool.


Feels Like: 60 °F
Forecast: 48 / 67 °F
Wind: 1 mph from Northeast

Location: Oslo-Blindern

Current Time: Aug 20, 2014 at 5:17:15 PM

Latest Report: Aug 20, 2014 at 4:00 PM


Visibility: N/A

Pressure: 29.44 "Hg

Humidity: 79%

Dew point: 54 °F

Location of FetsundLocation

Historic Weather in Fetsund — Graph

°F

Fetsund temperature yesterday

Maximum temperature yesterday: 67 °F (at 3:00 PM)
Minimum temperature yesterday: 52 °F (at 12:00 AM)
Average temperature yesterday: 57 °F

Past Weeks' High & Low Weather Summary

 TemperatureHumidityPressure
High78 °F (Aug 8, 4:00 PM)97% (Aug 17, 11:00 AM)29.96 "Hg (Aug 17, 11:00 AM)
Low49 °F (Aug 20, 4:00 AM)43% (Aug 6, 5:00 PM)29.18 "Hg (Aug 18, 9:00 AM)
Average61 °F77%29.61 "Hg
* Reported Aug 5 4:00 PM — Aug 20 4:00 PM, Fetsund, Weather by CustomWeather, © 2014

Note: Actual official high and low records may vary slightly from our data, if they occured in-between our weather recording intervals... More about our weather records

Advertising

Fetsund weather history for previous 24 hours

 ConditionsComfort  
Time TempWeatherWind HumidityBarometerVisibility
4:00 PM
Aug 20
60 °FCool.1 mph79%29.44 "HgN/A
3:00 PM60 °FCool.2 mph78%29.41 "HgN/A
2:00 PM65 °FPartly sunny.1 mph52%29.41 "Hg47 mi
1:00 PM64 °FMild.2 mph61%29.41 "HgN/A
12:00 PM64 °FMild.3 mph59%29.41 "HgN/A
11:00 AM62 °FPartly sunny.1 mph67%29.41 "Hg47 mi
10:00 AM58 °FCool.2 mph76%29.41 "HgN/A
9:00 AM55 °FCool.1 mph83%29.38 "HgN/A
8:00 AM54 °FCool.1 mph90%29.38 "HgN/A
7:00 AM51 °FCool.1 mph94%29.38 "HgN/A
6:00 AM50 °FCool.No wind96%29.35 "HgN/A
5:00 AM50 °FCool.1 mph95%29.35 "HgN/A
4:00 AM49 °FCool.1 mph96%29.35 "HgN/A
3:00 AM49 °FCool.1 mph96%29.35 "HgN/A
2:00 AM51 °FPassing clouds.2 mph93%29.35 "Hg43 mi
1:00 AM52 °FCool.1 mph95%29.32 "HgN/A
12:00 AM54 °FCool.2 mph95%29.32 "HgN/A
11:00 PM
Aug 19
56 °FOvercast.2 mph93%29.32 "Hg43 mi
10:00 PM58 °FCool.1 mph85%29.32 "HgN/A
9:00 PM58 °FCool.2 mph79%29.29 "HgN/A
8:00 PM59 °FOvercast.1 mph75%29.29 "Hg47 mi
7:00 PM60 °FCool.2 mph71%29.26 "HgN/A
6:00 PM62 °FCool.2 mph67%29.26 "HgN/A
5:00 PM62 °FPartly sunny.5 mph68%29.26 "Hg43 mi
Weather by CustomWeather, © 2014

See weather overviewHow to use our weather pages